Regional Weather Roundup
Issued by NWS State College, PA

Home | Current Version | Previous Version | Text Only | Print | Product List | Glossary On
Versions: 1 2 3 4 5 6 7 8 9 10 11 12 13 14 15 16 17 18 19 20 21 22 23 24 25 26 27 28 29 30 31 32 33 34 35 36 37 38 39 40 41 42 43 44 45 46 47 48 49 50
000
ASUS41 KCTP 041010
RWRCTP

REGIONAL WEATHER ROUNDUP
NATIONAL WEATHER SERVICE STATE COLLEGE PA
600 AM EDT TUE AUG 04 2015

Note: "fair" indicates few or no clouds below 12,000 feet with no
significant weather and/or obstructions to visibility.

* = STATION THAT DOES NOT REPORT PRECIPITATION /E.G. RAIN...SNOW...ETC/
    THUNDER OR FOG.

PAZ002>004-007>009-013>016-020>023-029>032-041100-
WESTERN PENNSYLVANIA

CITY           SKY/WX    TMP DP  RH WIND       PRES   REMARKS
ERIE           MOCLDY    65  61  87 S6        29.86S
MEADVILLE      PTCLDY    61  58  90 SW5       29.91R
FRANKLIN*      CLEAR     57  54  88 SW7       29.93R
NEW CASTLE     FAIR      60  60 100 CALM      29.94R
BEAVER COUNTY  NOT AVBL
BUTLER*        CLEAR     61  59  94 W5        29.95R
PITTSBURGH INT PTCLDY    64  60  87 W5        29.94R
PITTSBURGH     PTCLDY    64  59  83 W9        29.94R
INDIANA*       CLOUDY    63  63 100 CALM      29.96R FOG
LATROBE        MOCLDY    63  63 100 CALM      29.95
WASHINGTON CO* NOT AVBL
$$

PAZ004>006-010>012-017>019-024>028-033>037-041-042-045-046-049>053-041100-
CENTRAL PENNSYLVANIA

CITY           SKY/WX    TMP DP  RH WIND       PRES   REMARKS
BRADFORD       FOG       58  57  97 CALM      29.92R VSB 1/4
DUBOIS         FOG       63  61  93 SW7       29.92R VSB 1/4
CLEARFIELD     MOCLDY    62  61  96 SW7       29.92S
JOHNSTOWN      MOCLDY    62  60  93 SW6       29.97R
ALTOONA        CLEAR     63  60  90 SW5       29.94R
STATE COLLEGE  CLEAR     61  59  94 CALM      29.91R
WILLIAMSPORT   PTCLDY    65  61  87 CALM      29.87R
SELINSGROVE    PTCLDY    62  61  96 CALM      29.89R
FT INDIANTOWN  CLOUDY    64  63  98 CALM      29.89R
CAPITAL CITY   CLOUDY    69  64  84 CALM      29.88R
HARRISBURG     CLOUDY    71  65  81 CALM      29.87R
YORK           CLOUDY    69  66  90 VRB6      29.88S
$$

PAZ038>040-043-044-047-048-054-055-060>062-067>071-041100-
EASTERN PENNSYLVANIA

CITY           SKY/WX    TMP DP  RH WIND       PRES   REMARKS
SCRANTON       CLOUDY    70  65  84 S5        29.88R
MOUNT POCONO   CLOUDY    65  63  93 W5        29.92R
ALLENTOWN      CLOUDY    66  64  93 CALM      29.88R
QUAKERTOWN*    CLOUDY    64  64 100 CALM      29.91R
READING        CLOUDY    68  65  90 S3        29.88R
LANCASTER      CLOUDY    68  65  90 CALM      29.89R
COATESVILLE    LGT RAIN  68  68 100 CALM      29.92R
POTTSTOWN      CLOUDY    67  66  97 CALM      29.91R
BLUE BELL      CLOUDY    68  68 100 CALM      29.88S
DOYLESTOWN     CLOUDY    66  65  96 N6        29.89R
WILLOW GROVE   NOT AVBL
NORTH PHILA    CLOUDY    72  63  73 CALM      29.88S
PHILADELPHIA   CLOUDY    76  67  73 S6        29.88F
$$



USA.gov is the U.S. government's official web portal to all federal, state and local government web resources and services.